Location: Unspecified
(0.0000°N, 0.0000°E)
Time: 20:23:26
(UTC+00:00)

CZ-3C DEB - Pass Details

Date: 10 March 2026
Orbit: 440 x 28021 km, 21.3° (Epoch: 10 April)

Event Time Altitude Azimuth Distance (km) Brightness Sun altitude
Rises 14:11:15 0° 280° (W) 6,736 ? 59.5°
Reaches altitude 10° 14:14:11 10° 284° (WNW) 6,600 ? 58.8°
Maximum altitude 20:21:55 78° 50° (NE) 19,287 ? -32.8°
Enters shadow 21:17:23 55° 103° (ESE) 10,416 ? -46.7°
